Regional Weather Roundup
Issued by NWS Northern Indiana

Home | Current Version | Previous Version | Graphics & Text | Print | Product List | Glossary On
Versions: 1 2 3 4 5 6 7 8 9 10 11 12 13 14 15 16 17 18 19 20 21 22 23 24 25 26 27 28 29 30 31 32 33 34 35 36 37 38 39 40 41 42 43 44 45 46 47 48 49 50
000
ASUS43 KIWX 310800
RWRIWX

KIWX WEATHER ROUNDUP
NATIONAL WEATHER SERVICE NORTHERN INDIANA
400 AM EDT FRI JUL 31 2015

NOTE: "FAIR" INDICATES FEW OR NO CLOUDS BELOW 12,000 FEET WITH NO
SIGNIFICANT WEATHER AND/OR OBSTRUCTIONS TO VISIBILITY.

* THESE STATIONS ARE NOT UNDER NWS QUALITY CONTROL. THEY ALSO MAY NOT
  REPORT WEATHER SUCH AS PRECIPITATION OR FOG.

INZ001>027-310900-
NORTHERN INDIANA

CITY           SKY/WX    TMP DP  RH WIND       PRES   REMARKS
SOUTH BEND     CLEAR     66  60  81 SW3       30.02S
GOSHEN         CLEAR     64  59  83 W3        30.01S
ANGOLA*        PTCLDY    66  59  77 W6        30.01S
FORT WAYNE     PTCLDY    67  61  81 W8        30.02F
PERU/GRISSOM   CLEAR     68  62  83 W9        30.04S

$$
INZ028>050-310900-
CENTRAL INDIANA

CITY           SKY/WX    TMP DP  RH WIND       PRES   REMARKS
LAFAYETTE      CLEAR     64  63  96 W3        30.05S
KOKOMO*        CLEAR     68  61  77 W8        30.05S
MUNCIE*        CLEAR     66  61  84 SW7       30.05S
INDIANAPOLIS   CLEAR     66  61  84 SW6       30.05S

$$
MIZ043>046-050>051-056>058-064>065-071>073-077>080-310900-
SOUTHWEST LOWER MICHIGAN

CITY           SKY/WX    TMP DP  RH WIND       PRES   REMARKS
BATTLE CREEK   CLEAR     67  58  72 SW5       30.00R
BENTON HARBOR  CLEAR     72  62  71 W8        30.00R
COLDWATER*     CLEAR     62  57  83 W6        30.00S
HILLSDALE*     CLEAR     68  57  67 W5        30.00S
HOLLAND        CLEAR     68  62  81 W6        29.99R
GRAND RAPIDS   CLEAR     67  59  75 SW7       29.97S
KALAMAZOO      CLEAR     66  58  75 CALM      30.00R
STURGIS*       PTCLDY    63  57  82 CALM      30.00S
THREE RIVERS*  FAIR      64  58  82 SW3       30.01S

$$
OHZ001>008-015>018-024>025-310900-
NORTHWEST OHIO

CITY           SKY/WX    TMP DP  RH WIND       PRES   REMARKS
DEFIANCE       PTCLDY    64  57  78 CALM      30.00S
FINDLAY        CLEAR     67  56  67 SW6       29.99F
TOLEDO EXPRESS CLEAR     66  57  72 SW8       29.98S
TOLEDO METCALF CLEAR     66  57  72 SW6       29.98F
LIMA           CLEAR     65  57  75 SW6       30.02F

$$
AND FOR LAKE MICHIGAN COASTAL AND OPEN LAKE BUOY OBSERVATIONS

STATION/POSITION TEMP    WIND        PRES    VSBY  WAVE
                 AIR SEA DIR/SP/G                  HT/PER
                 (F)     (DEG/KT/KT) (MB)    (MI)  (FT/S)
CALUMET HARBOR    74     270/  3/  6   N/A
MICHIGAN CITY     75     250/ 11/ 13   N/A
BURNS HARBOR      74     250/  8/  9 1017.3R
SAINT JOSEPH      74     250/  7/ 10 1016.6R
4 MI NW BRIDGMAN  75 74  320/ 12/ 14   N/A           2/ 3
MICHIGAN CITY     76 74  300/ 10/ 12   N/A           2/ 3

$$
&&


USA.gov is the U.S. government's official web portal to all federal, state and local government web resources and services.